Location: Arborea
(39.7744°N, 8.5819°E)
Time: 02:08:05
(UTC+00:00)

Cosmos 1140 Rocket - Pass Details

Date: 24 October 2021
Orbit: 744 x 768 km, 74.1° (Epoch: 27 November)

Event Time Altitude Azimuth Distance (km) Brightness Sun altitude
Rises 18:14:18 0° 349° (N) 3,218 6.9 -20.0°
Reaches altitude 10° 18:16:52 10° 359° (N) 2,293 6.0 -20.5°
Enters shadow 18:20:36 32° 41° (NE) 1,296 4.3 -21.2°
